Weather Roundup
Issued by NWS Springfield, MO

Home | Current Version | Previous Version | Text Only | Print | Product List | Glossary On
Versions: 1 2 3 4 5 6 7 8 9 10 11 12 13 14 15 16 17 18 19 20 21 22 23 24 25 26 27 28 29 30 31 32 33 34 35 36 37 38 39 40 41 42 43 44 45 46 47 48 49 50
000
NZUS99 KSGF 020710
HRRSGF

HOURLY WEATHER
NATIONAL WEATHER SERVICE SPRINGFIELD MO
200 AM CDT WED SEP 02 2015

......SGF CWA......

CITY           SKY/WX    TMP DP  RH WIND       PRES   REMARKS
SPRINGFIELD    CLEAR     72  67  84 SE10      30.07F
JOPLIN         CLEAR     74  66  76 S10       30.04F
WEST PLAINS    CLEAR     74  67  78 CALM      30.12F
ROLLA          CLEAR     72  69  90 S7        30.07F
OSAGE BEACH    CLEAR     73  66  78 S8        30.06F
BRANSON        CLEAR     72  64  78 CALM      30.10F

......SURROUNDING SGF CWA......

CITY           SKY/WX    TMP DP  RH WIND       PRES   REMARKS
CHANUTE        CLEAR     71  67  87 SE8       30.01F
PARSONS        CLEAR     72  68  87 SE3       30.02F
COFFEYVILLE    CLEAR     71  67  87 S3        30.01F
EMPORIA        CLEAR     73  67  81 S14       29.99F
GROVE OK       CLEAR     73  70  88 S6        30.05F
ROGERS AR      CLEAR     72  66  81 SE6       30.10S
SILOAM SPRINGS CLEAR     70  63  78 SE5       30.07S
HARRISON AR    CLEAR     67  64  90 SE6       30.11F
NEAR YELLVILLE CLEAR     68  63  83 CALM      30.07F

......KANSAS AND MISSOURI......

CITY           SKY/WX    TMP DP  RH WIND       PRES   REMARKS
KANSAS CTY INT PTCLDY    73  65  75 S12       29.99F
DOWNTOWN KC    CLEAR     77  65  66 SW7       29.99F
COLUMBIA       CLEAR     72  69  90 S7        30.05F
SEDALIA        CLEAR     73  68  84 S6        30.05F
ST JOSEPH      LGT RAIN  74  69  85 SE5       29.98F
ST LOUIS       CLEAR     79  69  71 SW3       30.07F
SPIRIT OF STL  CLEAR     72  71  97 CALM      30.05F
KIRKSVILLE     CLEAR     73  67  81 S8        30.03F
WICHITA        MOCLDY    78  64  61 S15       29.98F
TOPEKA         PTCLDY    76  67  73 S8        29.97F
OLATHE         CLEAR     70  65  84 S7        30.00F

......TENNESSEE......

CITY           SKY/WX    TMP DP  RH WIND       PRES   REMARKS
MEMPHIS        CLOUDY    79  71  76 CALM      30.07S
NASHVILLE      MOCLDY    72  67  84 CALM      30.10F

......ARKANSAS.......

CITY           SKY/WX    TMP DP  RH WIND       PRES   REMARKS
FAYETTEVILLE   CLEAR     68  67  96 CALM      30.09S
FT SMITH       CLEAR     74  66  76 E6        30.04F
LITTLE ROCK    PTCLDY    76  71  85 CALM      30.06F

......OKLAHOMA.......

CITY           SKY/WX    TMP DP  RH WIND       PRES   REMARKS
TULSA          MOCLDY    78  68  71 S10       30.01S
PONCA CITY     CLEAR     78  64  61 S8        30.00F
MCALESTER      CLEAR     76  66  71 VRB5      30.05F
OKLAHOMA CITY  PTCLDY    71  63  75 SE8       30.03S

......IOWA............

CITY           SKY/WX    TMP DP  RH WIND       PRES   REMARKS
DES MOINES     CLOUDY    76  67  73 SW8       29.98R THUNDER
QUAD CITIES    PTCLDY    73  67  81 CALM      30.01F

......ILLINOIS........

CITY           SKY/WX    TMP DP  RH WIND       PRES   REMARKS
QUINCY         CLEAR     74  69  85 S5        30.04F
CHICAGO        PTCLDY    75  69  81 SW7       30.02F



USA.gov is the U.S. government's official web portal to all federal, state and local government web resources and services.